Pontiac, MI

11:47 PM EDT on April 24, 2017 (GMT -0400)
Oakland County International

Weather History for KPTK - July, 2013

Change the Weather History Date:

Tuesday, July 16, 2013

  Actual Average Record
Temperature  
Mean Temperature 82 °F -  
Max Temperature 91 °F 80 °F 95 °F (2012)
Min Temperature 73 °F 59 °F 51 °F (2015)
Cooling Degree Days 17    
Growing Degree Days 32 (Base 50)    
Moisture  
Dew Point 73 °F    
Average Humidity 74    
Maximum Humidity 93    
Minimum Humidity 53    
Precipitation  
Precipitation 0.00 in - - ()
Sea Level Pressure  
Sea Level Pressure 30.27 in    
Wind  
Wind Speed 3 mph (West)    
Max Wind Speed 9 mph    
Max Gust Speed -    
Visibility 9 miles    
Events Rain    
Averages and records for this station are not official NWS values.
T = Trace of Precipitation, MM = Missing Value Source: NWS Daily Summary

Daily Weather History Graph

Daily Weather History Graph

Search for Another Location

Airport or City:

Trip Planner

Search our weather history database for the weather conditions in past years. The results will help you decide how hot, cold, wet, or windy it might be!

Date:

Astronomy

Jul. 16, 2013 Rise Set
Actual Time 6:10 AM EDT 9:08 PM EDT
Civil Twilight 5:36 AM EDT 9:42 PM EDT
Nautical Twilight 4:53 AM EDT 10:25 PM EDT
Astronomical Twilight 4:03 AM EDT 11:15 PM EDT
Moon 2:46 PM EDT (7/16) 12:43 AM EDT (7/16)
Length of Visible Light 16h 05m
Length of Day
14h 58m
First Quarter, 56% of the Moon is Illuminated
Jul 16
First Quarter
Jul 22
Full
Jul 29
Last Quarter
Aug 6
New
Aug 14
First Quarter

Hourly Weather History & Observations

Time (EDT) Temp. Heat Index Dew Point Humidity Pressure Visibility Wind Dir Wind Speed Gust Speed Precip Events Conditions
12:53 AM 75.9 °F - 73.0 °F 91% 30.27 in 6.0 mi Calm Calm - N/A   Clear
1:53 AM 75.9 °F - 73.0 °F 91% 30.26 in 5.0 mi Calm Calm - N/A   Mostly Cloudy
2:53 AM 75.9 °F - 73.0 °F 91% 30.26 in 5.0 mi West 5.8 mph - N/A   Scattered Clouds
3:53 AM 75.0 °F - 72.0 °F 90% 30.25 in 7.0 mi Calm Calm - N/A   Clear
4:53 AM 73.9 °F - 72.0 °F 93% 30.26 in 8.0 mi Calm Calm - N/A   Mostly Cloudy
5:53 AM 75.0 °F - 72.0 °F 90% 30.28 in 8.0 mi Calm Calm - N/A   Mostly Cloudy
6:53 AM 75.0 °F - 72.0 °F 90% 30.29 in 6.0 mi Calm Calm - N/A   Mostly Cloudy
7:53 AM 77.0 °F - 73.0 °F 88% 30.30 in 9.0 mi Calm Calm - N/A   Mostly Cloudy
8:53 AM 78.1 °F - 73.0 °F 84% 30.31 in 9.0 mi Calm Calm - N/A   Overcast
9:53 AM 79.0 °F - 73.0 °F 82% 30.31 in 10.0 mi WNW 3.5 mph - N/A   Mostly Cloudy
10:53 AM 82.0 °F 87.4 °F 73.0 °F 74% 30.31 in 10.0 mi WNW 5.8 mph - N/A   Mostly Cloudy
11:53 AM 86.0 °F 92.2 °F 72.0 °F 63% 30.30 in 10.0 mi WNW 8.1 mph - N/A   Scattered Clouds
12:53 PM 86.0 °F 92.2 °F 72.0 °F 63% 30.29 in 10.0 mi NW 8.1 mph - N/A   Mostly Cloudy
1:53 PM 84.0 °F 90.2 °F 73.0 °F 69% 30.28 in 10.0 mi West 9.2 mph - 0.00 in Rain Light Rain
2:53 PM 89.1 °F 98.0 °F 73.9 °F 61% 30.26 in 10.0 mi West 9.2 mph - 0.00 in   Scattered Clouds
3:53 PM 90.0 °F 97.9 °F 73.0 °F 57% 30.26 in 10.0 mi WNW 4.6 mph - N/A   Scattered Clouds
4:53 PM 91.0 °F 98.2 °F 72.0 °F 53% 30.25 in 10.0 mi West 8.1 mph - N/A   Mostly Cloudy
5:53 PM 90.0 °F 96.9 °F 72.0 °F 55% 30.24 in 10.0 mi West 8.1 mph - N/A   Mostly Cloudy
6:53 PM 87.1 °F 94.5 °F 73.0 °F 63% 30.24 in 10.0 mi SW 8.1 mph - N/A   Mostly Cloudy
7:53 PM 88.0 °F 95.6 °F 73.0 °F 61% 30.25 in 10.0 mi WSW 6.9 mph - N/A   Mostly Cloudy
8:53 PM 86.0 °F 93.8 °F 73.9 °F 67% 30.24 in 10.0 mi SSW 4.6 mph - N/A   Mostly Cloudy
9:53 PM 84.0 °F 90.2 °F 73.0 °F 69% 30.24 in 10.0 mi WSW 4.6 mph - N/A   Scattered Clouds
10:53 PM 82.9 °F 88.0 °F 72.0 °F 69% 30.25 in 10.0 mi West 4.6 mph - N/A   Scattered Clouds
11:53 PM 81.0 °F 85.2 °F 72.0 °F 74% 30.25 in 10.0 mi Calm Calm - N/A   Partly Cloudy